Regional Weather Roundup
Issued by NWS

Home | Current Version | Previous Version | Text Only | Print | Product List | Glossary Off
Versions: 1 2 3 4 5 6 7 8 9 10 11 12 13 14 15 16 17 18 19 20 21 22 23 24 25 26 27 28 29 30 31 32 33 34 35 36 37 38 39 40 41 42 43 44 45 46 47 48 49 50

312
ASUS45 KSLC 281410
RWRUT

UTAH REGIONAL WEATHER ROUNDUP
NATIONAL WEATHER SERVICE SALT LAKE CITY UT
800 AM MDT SUN MAY 28 2017

UTZ001>011-023>025-281500-

NORTHERN UTAH

CITY           SKY/WX    TMP DP  RH WIND       PRES   REMARKS
BRIGHAM CITY   SUNNY     50  38  64 CALM      30.27R
HILL AFB       SUNNY     50  35  55 E20G26    30.27R
LOGAN          SUNNY     48  41  76 CALM      30.31R
OGDEN          SUNNY     54  36  50 S5        30.26R
SALT LAKE CITY SUNNY     60  39  45 SE7       30.25R
TOOELE VALLEY  SUNNY     55  37  50 S6        30.27R
WENDOVER       SUNNY     59  32  36 S6        30.26R
HEBER CITY     SUNNY     45  32  61 CALM      30.33R
WEST JORDAN    SUNNY     55  44  66 CALM      30.27R

$$

UTZ011>015-024>027-281500-

CENTRAL/NORTHEAST UTAH

CITY           SKY/WX    TMP DP  RH WIND       PRES   REMARKS
PROVO AIRPORT  SUNNY     54  38  54 S3        30.28R HAZE
MOAB/CANYONLAN SUNNY     63  28  26 NE10      30.23R
DELTA          SUNNY     52  34  50 CALM      30.27R
PRICE          SUNNY     52  29  41 CALM      30.31R
ROOSEVELT      SUNNY     50  36  57 CALM      30.34S
VERNAL         SUNNY     55  31  39 CALM      30.32R

$$

UTZ013>016-019>022-027-281500-

SOUTHERN UTAH

CITY           SKY/WX    TMP DP  RH WIND       PRES   REMARKS
BRYCE CANYON   SUNNY     44  27  51 W5        30.37R
CEDAR CITY     SUNNY     49  30  48 CALM      30.27R
MILFORD        SUNNY     47  28  47 S6        30.27R
ST GEORGE      SUNNY     65  27  23 E8        30.13R
HANKSVILLE     SUNNY     61  27  27 CALM      30.27S
BLANDING       SUNNY     60  20  21 NE10G18   30.35R

$$

REGIONAL REPORTS     COLORADO/ARIZONA

CITY           SKY/WX    TMP DP  RH WIND       PRES   REMARKS
CRAIG, CO      SUNNY     42  35  76 CALM      30.37R
GRAND JUNCTION SUNNY     56  33  42 SE15      30.30R
RIFLE, CO      SUNNY     45  33  63 CALM      30.36R
MONTROSE, CO   SUNNY     48  31  51 SE6       30.35R
CORTEZ, CO     SUNNY     47  30  51 CALM      30.29R
COLORADO CITY    N/A     64  30  27 N6        30.23R
PAGE, AZ       SUNNY     67  28  23 VRB3      30.19R
GRAND CANYON   SUNNY     59  23  25 E13G20    30.28R
KINGMAN, AZ    SUNNY     70  25  18 E7        30.08R
FLAGSTAFF, AZ  SUNNY     57  24  28 E10       30.28R

$$

REGIONAL REPORTS    NEVADA/IDAHO/WYOMING

CITY           SKY/WX    TMP DP  RH WIND       PRES   REMARKS
LAS VEGAS, NV  SUNNY     76  22  13 E6        30.03R
ELY, NY        SUNNY     41  27  57 S6        30.33R
ELKO, NV       SUNNY     47  35  63 CALM      30.28R
POCATELLO, ID  SUNNY     48  41  76 CALM      30.30R
BURLEY, ID     SUNNY     49  44  83 CALM      30.26R
EVANSTON, WY   SUNNY     46  32  58 CALM      30.37R
ROCK SPRINGS,  SUNNY     45  32  60 CALM      30.36R
KEMMERER, WY     N/A     43  32  65 N8        30.38S

$$




USA.gov is the U.S. government's official web portal to all federal, state and local government web resources and services.